Powrót do katalogu

FENGYUN 1C DEB

AktywnyPO
NORAD 36200·DEBRIS·🇨🇳 China

Wystrzelony May 10, 1999 z Taiyuan Satellite Launch Center

Loading…

Następne Przeloty (najbliższe 24 godziny)

TLE

ŚwieżeSource: Space-Track

Epoka: Sep 14, 2026, 18:53 UTC

1 36200U 99025DTZ 26257.78713025  .00015670  00000-0  26296-2 0  9997
2 36200  99.3838  15.0891 0029448 248.7568 111.0488 14.69514098774013

Śledź FENGYUN 1C DEB w czasie rzeczywistym z AllMySat

Download on the App Store